Погода в Чуванском

Россия / Чукотский автономный округ     65°10′23″N   167°57′32″E
темп.,
°C
ветер,
м/с
пор.,
м/с
влажн.,
%
обл.,
%
осадки,
мм/ч
давл.,
гПа
погр.,
м
4 марта, чт
чт400:00−30св129578 0.0 101823
03:00−29ссв3499100 0.4 1012228
06:00−26св51199100 1.9 1003478
09:00−24св92098100 4.9 992881
12:00−19всв122193100 7.0 9811280
15:00−15всв111985100 0.7 9731116
18:00−14св71591100 1.4 969775
21:00−13св61095100 1.4 967378
5 марта, пт
пт500:00−22вюв33100100 2.3 968124
03:00−23юв0199100 1.0 96823
06:00−19с41198100 1.9 969569
09:00−18с111693100 1.2 9711126
12:00−25сз51279100 1.6 974627
15:00−26сз61477100 0.0 978775
18:00−27сз61377100 0.0 982559
21:00−29з4982100 0.0 985249
6 марта, сб
сб600:00−30зюз3385100 0.0 98766
03:00−32зюз2288100 0.0 98823
06:00−32зюз2287100 0.0 98920
09:00−31зюз2289100 0.0 99139
12:00−29юз2288100 0.0 992159
15:00−28юз2390100 0.0 993165
18:00−30юз2291100 0.0 99519
21:00−30зюз2291100 0.0 99619
7 марта, вс
вс700:00−31зюз2290100 0.0 99719
03:00−32зюз1289100 0.0 99819
06:00−34зюз1190100 0.0 99919
09:00−32з1192100 0.0 99921
12:00−30сз1191100 0.0 999183
15:00−28с3490100 0.0 999400
18:00−31с3393100 0.1 99932
21:00−34ссз338993 0.0 99920
8 марта, пн
пн800:00−36ссз238788 0.0 99821
03:00−34сз228598 0.0 99536
06:00−33зсз229799 0.1 993111
09:00−32сз2497100 0.3 993261
12:00−30сз3791100 0.6 993628
15:00−29ссз4885100 0.1 992803
18:00−31сз2288100 0.1 99335
21:00−33зсз1192100 0.0 99419